Location: Beadle
(51.4667°N, 109.0000°W)
Time: 05:07:51
(UTC+00:00)

Altair - Pass Details

Date: 04 June 2022
Orbit: 1501 x 1682 km, 47.2° (Epoch: 30 June)

Event Time Altitude Azimuth Distance (km) Brightness Sun altitude
Rises 18:55:56 0° 179° (S) 4,736 10.5 60.8°
Reaches altitude 10° 19:00:35 10° 159° (SSE) 3,793 10.2 60.9°
Maximum altitude 19:05:47 16° 126° (SE) 3,375 9.8 61.0°
Drops below altitude 10° 19:11:05 10° 93° (E) 3,880 9.8 61.0°
Sets 19:15:53 0° 74° (ENE) 4,900 10.1 61.0°
